Hourly Weather Holodnyy Klyuch

Today, 12 April, Monday

Time Temperature Precipitation Wind Pressure Humidity
00:00 +10°C° 0.1 mm 1 mps 754 mmHg 86%
01:00 +9°C° 0.1 mm 1 mps 754 mmHg 88%
02:00 +9°C° 0.4 mm 1 mps 754 mmHg 89%
03:00 +9°C° 0.4 mm 1 mps 755 mmHg 91%
04:00 +7°C° 0 mm 1 mps 755 mmHg 96%
05:00 +7°C° 0.8 mm 1 mps 755 mmHg 97%
06:00 +7°C° 0.8 mm 1 mps 756 mmHg 98%
07:00 +7°C° 0.8 mm 1 mps 756 mmHg 99%
08:00 +6°C° 0.5 mm 2 mps 756 mmHg 98%
09:00 +6°C° 0.5 mm 2 mps 757 mmHg 98%
10:00 +6°C° 0 mm 2 mps 757 mmHg 98%
11:00 +6°C° 0.3 mm 2 mps 757 mmHg 98%
12:00 +6°C° 0.3 mm 2 mps 757 mmHg 97%
13:00 +6°C° 0.3 mm 2 mps 758 mmHg 96%
14:00 +7°C° 0.1 mm 2 mps 758 mmHg 93%
15:00 +7°C° 0.1 mm 3 mps 758 mmHg 90%
16:00 +8°C° 0.1 mm 3 mps 758 mmHg 87%
17:00 +7°C° 0 mm 3 mps 758 mmHg 86%
18:00 +7°C° 0 mm 2 mps 758 mmHg 85%
19:00 +7°C° 0 mm 2 mps 758 mmHg 84%
20:00 +6°C° 0 mm 2 mps 759 mmHg 86%
21:00 +6°C° 0 mm 2 mps 759 mmHg 88%
22:00 +4°C° 0 mm 3 mps 759 mmHg 90%
23:00 +5°C° 0 mm 2 mps 759 mmHg 91%

Tomorrow, 13 April, Tuesday

Time Temperature Precipitation Wind Pressure Humidity
00:00 +4°C° 0 mm 2 mps 759 mmHg 91%
01:00 +4°C° 0 mm 2 mps 759 mmHg 92%
02:00 +4°C° 0 mm 2 mps 759 mmHg 91%
03:00 +4°C° 0 mm 2 mps 759 mmHg 90%
04:00 +3°C° 0 mm 2 mps 759 mmHg 89%
05:00 +4°C° 0 mm 2 mps 759 mmHg 87%
06:00 +5°C° 0 mm 1 mps 759 mmHg 86%
07:00 +5°C° 0 mm 1 mps 759 mmHg 84%
08:00 +7°C° 0 mm 1 mps 759 mmHg 81%
09:00 +8°C° 0 mm 2 mps 759 mmHg 77%
10:00 +10°C° 0 mm 2 mps 759 mmHg 73%
11:00 +12°C° 0 mm 2 mps 758 mmHg 71%
12:00 +12°C° 0 mm 3 mps 758 mmHg 69%
13:00 +14°C° 0 mm 3 mps 758 mmHg 67%
14:00 +14°C° 0 mm 3 mps 758 mmHg 64%
15:00 +16°C° 0 mm 3 mps 757 mmHg 61%
16:00 +17°C° 0 mm 3 mps 757 mmHg 58%
17:00 +14°C° 0 mm 3 mps 757 mmHg 62%
18:00 +13°C° 0 mm 3 mps 757 mmHg 67%
19:00 +13°C° 0 mm 2 mps 756 mmHg 71%
20:00 +12°C° 0 mm 2 mps 756 mmHg 72%
21:00 +12°C° 0 mm 2 mps 756 mmHg 74%
22:00 +10°C° 0 mm 2 mps 756 mmHg 75%
23:00 +9°C° 0 mm 2 mps 756 mmHg 78%

Day after tomorrow, 14 April, Wednesday

Time Temperature Precipitation Wind Pressure Humidity
00:00 +9°C° 0 mm 2 mps 756 mmHg 80%
01:00 +8°C° 0 mm 2 mps 755 mmHg 82%
02:00 +8°C° 0 mm 2 mps 755 mmHg 84%
03:00 +7°C° 0 mm 2 mps 755 mmHg 85%
04:00 +7°C° 0 mm 2 mps 755 mmHg 87%
05:00 +7°C° 0 mm 2 mps 755 mmHg 88%
06:00 +7°C° 0 mm 2 mps 755 mmHg 88%
07:00 +7°C° 0 mm 2 mps 755 mmHg 89%
08:00 +9°C° 0 mm 2 mps 755 mmHg 81%
09:00 +10°C° 0 mm 2 mps 755 mmHg 73%
10:00 +12°C° 0 mm 3 mps 755 mmHg 65%
11:00 +13°C° 0 mm 3 mps 754 mmHg 60%
12:00 +14°C° 0 mm 3 mps 754 mmHg 55%
13:00 +16°C° 0 mm 3 mps 754 mmHg 50%
14:00 +17°C° 0 mm 3 mps 753 mmHg 48%
15:00 +17°C° 0 mm 3 mps 753 mmHg 46%
16:00 +18°C° 0 mm 3 mps 752 mmHg 45%
17:00 +16°C° 0 mm 3 mps 752 mmHg 48%
18:00 +14°C° 0 mm 3 mps 752 mmHg 52%
19:00 +14°C° 0 mm 2 mps 751 mmHg 55%
20:00 +13°C° 0 mm 2 mps 751 mmHg 59%
21:00 +12°C° 0 mm 2 mps 751 mmHg 63%
22:00 +10°C° 0 mm 2 mps 751 mmHg 67%
23:00 +10°C° 0 mm 2 mps 751 mmHg 69%

15 April, Thursday

Time Temperature Precipitation Wind Pressure Humidity
00:00 +9°C° 0 mm 2 mps 751 mmHg 71%
01:00 +9°C° 0 mm 2 mps 750 mmHg 73%
02:00 +8°C° 0 mm 2 mps 750 mmHg 72%
03:00 +7°C° 0 mm 2 mps 750 mmHg 72%
04:00 +7°C° 0 mm 2 mps 750 mmHg 72%
05:00 +7°C° 0 mm 2 mps 750 mmHg 72%
06:00 +7°C° 0 mm 2 mps 750 mmHg 71%
07:00 +7°C° 0 mm 2 mps 749 mmHg 70%
08:00 +9°C° 0 mm 2 mps 749 mmHg 65%
09:00 +11°C° 0 mm 3 mps 749 mmHg 60%
10:00 +12°C° 0 mm 3 mps 749 mmHg 54%
11:00 +14°C° 0 mm 3 mps 749 mmHg 52%
12:00 +16°C° 0 mm 3 mps 748 mmHg 49%
13:00 +17°C° 0 mm 4 mps 748 mmHg 46%
14:00 +18°C° 0 mm 4 mps 747 mmHg 45%
15:00 +18°C° 0 mm 3 mps 747 mmHg 44%
16:00 +19°C° 0 mm 3 mps 747 mmHg 43%
17:00 +18°C° 0 mm 3 mps 746 mmHg 48%
18:00 +16°C° 0 mm 2 mps 746 mmHg 53%
19:00 +15°C° 0 mm 2 mps 746 mmHg 58%
20:00 +14°C° 0 mm 2 mps 745 mmHg 60%
21:00 +13°C° 0 mm 2 mps 745 mmHg 63%
22:00 +12°C° 0 mm 2 mps 745 mmHg 66%
23:00 +12°C° 0 mm 1 mps 745 mmHg 67%

16 April, Friday

Time Temperature Precipitation Wind Pressure Humidity
00:00 +11°C° 0 mm 1 mps 745 mmHg 69%
01:00 +11°C° 0 mm 1 mps 744 mmHg 70%
02:00 +10°C° 0 mm 1 mps 744 mmHg 72%
03:00 +10°C° 0 mm 1 mps 744 mmHg 73%
04:00 +10°C° 0 mm 1 mps 744 mmHg 74%
05:00 +10°C° 0 mm 1 mps 744 mmHg 74%
06:00 +10°C° 0 mm 1 mps 744 mmHg 74%
07:00 +10°C° 0 mm 1 mps 743 mmHg 73%
08:00 +12°C° 0 mm 1 mps 743 mmHg 70%
09:00 +13°C° 0 mm 1 mps 743 mmHg 67%
10:00 +14°C° 0 mm 2 mps 743 mmHg 64%
11:00 +15°C° 0 mm 2 mps 743 mmHg 59%
12:00 +16°C° 0 mm 3 mps 743 mmHg 54%
13:00 +17°C° 0 mm 3 mps 743 mmHg 48%
14:00 +17°C° 0.1 mm 4 mps 743 mmHg 52%
15:00 +15°C° 0.1 mm 5 mps 743 mmHg 55%
16:00 +15°C° 0.1 mm 7 mps 742 mmHg 58%
17:00 +11°C° 0.1 mm 7 mps 743 mmHg 64%
18:00 +9°C° 0.1 mm 7 mps 744 mmHg 71%
19:00 +6°C° 0.1 mm 7 mps 744 mmHg 77%
20:00 +5°C° 0 mm 6 mps 745 mmHg 76%
21:00 +3°C° 0 mm 6 mps 745 mmHg 74%
22:00 +2°C° 0 mm 6 mps 746 mmHg 73%
23:00 +2°C° 0 mm 6 mps 746 mmHg 71%

17 April, Saturday

Time Temperature Precipitation Wind Pressure Humidity
00:00 +1°C° 0 mm 6 mps 746 mmHg 68%
01:00 +1°C° 0 mm 5 mps 746 mmHg 65%
02:00 -1°C° 0 mm 6 mps 746 mmHg 64%
03:00 -2°C° 0 mm 6 mps 747 mmHg 62%
04:00 -3°C° 0 mm 6 mps 747 mmHg 61%
05:00 -3°C° 0 mm 6 mps 747 mmHg 62%
06:00 -3°C° 0 mm 7 mps 747 mmHg 63%
07:00 -3°C° 0 mm 7 mps 748 mmHg 64%
08:00 -2°C° 0 mm 7 mps 748 mmHg 63%
09:00 -2°C° 0 mm 7 mps 748 mmHg 63%
10:00 -1°C° 0 mm 7 mps 749 mmHg 62%
11:00 0°C° 0 mm 7 mps 749 mmHg 54%
12:00 +2°C° 0 mm 7 mps 749 mmHg 45%
13:00 +3°C° 0 mm 6 mps 749 mmHg 37%
14:00 +4°C° 0 mm 6 mps 749 mmHg 36%
15:00 +4°C° 0 mm 6 mps 749 mmHg 34%
16:00 +4°C° 0 mm 6 mps 749 mmHg 33%
17:00 +5°C° 0 mm 5 mps 749 mmHg 36%
18:00 +3°C° 0 mm 5 mps 749 mmHg 40%
19:00 +3°C° 0 mm 4 mps 749 mmHg 43%
20:00 +3°C° 0 mm 3 mps 749 mmHg 54%
21:00 +3°C° 0 mm 2 mps 749 mmHg 65%
22:00 +3°C° 0 mm 1 mps 750 mmHg 77%
23:00 +2°C° 0.1 mm 2 mps 750 mmHg 78%
Show more